Tracking 19847 objects as of 16-Sep-2019
HD Live streaming from Space Station
objects crossing your sky now

ARIANE 2 DEB

Track ARIANE 2 DEB now!


NORAD ID: 33566
Int'l Code: 1989-006BJ
Perigee: 633.0 km
Apogee: 35,424.0 km
Inclination: 8.5 °
Period: 632.2 minutes
Semi major axis: 24399 km
RCS: 0.1486 m2 (medium)
Launch date: January 27, 1989
Source: France (FR)
Launch site: FRENCH GUIANA (FRGUI)

Note: This is SATELLITE DEBRIS
aabbcc
Your satellite tracking list
Your tracking list is empty




NASA's NSSDC Master Catalog

Two Line Element Set (TLE):
1 33566U 89006BJ  19256.83806138  .00000336  00000-0  68101-2 0  9996
2 33566   8.5338  17.3470 7129448 233.3761  37.0681  2.27788449106603
Source of the keplerian elements: AFSPC